Hourly Data Report for October 14, 2013

All times are specified in Local Standard Time (LST). Add 1 hour to adjust for Daylight Saving Time where and when it is observed.

IQALUIT CLIMATE
NUNAVUT

63°44'50.000" N
68°32'40.000" W
33.50 m
2402592
71321
XFB

Download Data

Hourly Data (October 2013)
Hourly Data Report for October 14, 2013
Temp Definition
°C
Dew Point Temp Definition
°C
Rel Hum Definition
%
Wind Dir Definition
10's deg

Wind Spd Definition
km/h
Visibility Definition
km
Stn Press Definition
kPa
Hmdx Definition


Wind Chill Definition


Weather Definition


TIME
00:00 1.9 -0.5 84 17 19   100.66     LegendNANA
01:00 1.4 -0.3 88 14 19   100.64     LegendNANA
02:00 1.3 -0.1 90 13 20   100.59     LegendNANA
03:00 1.2 -0.1 91 15 20   100.53     LegendNANA
04:00 1.4 0.2 92 14 24   100.53     LegendNANA
05:00 1.6 0.3 91 14 24   100.51     LegendNANA
06:00 1.3 0.4 94 16 19   100.50     LegendNANA
07:00 1.4 0.5 94 15 17   100.47     LegendNANA
08:00 1.9 0.6 91 15 26   100.48     LegendNANA
09:00 2.0 0.9 92 15 22   100.48     LegendNANA
10:00 1.9 1.0 94 14 22   100.46     LegendNANA
11:00 2.0 1.3 95 14 26   100.51     LegendNANA
12:00 1.6 1.1 96 13 20   100.52     LegendNANA
13:00 2.3 1.6 95 13 19   100.53     LegendNANA
14:00 2.0 1.4 96 12 17   100.56     LegendNANA
15:00 1.7 1.0 95 12 11   100.62     LegendNANA
16:00 1.2 0.4 94 14 11   100.64     LegendNANA
17:00 2.2 1.0 92 14 17   100.69     LegendNANA
18:00 1.9 0.5 90 14 22   100.71     LegendNANA
19:00 2.6 0.2 84 12 20   100.69     LegendNANA
20:00 2.6 0.2 84 13 28   100.69     LegendNANA
21:00 2.8 0.3 84 13 30   100.66     LegendNANA
22:00 2.2 0.4 88 14 24   100.67     LegendNANA
23:00 1.5 0.4 92 15 30   100.65     LegendNANA

Notes on Data Quality.

Legend

  • E = Estimated
  • M = Missing
  • NA = Not Available
  • ‡ = Partner data that is not subject to review by the National Climate Archives
Date modified: